STARLINK-32188, 60365

Orbit data source: Space-Track

STARLINK-32188, 60365 is a payload satellite owned by SpaceX/Seattle (US) in LEO that was launched on Sun, 04 Aug 2024 UTC via an FALCON 9 launch vehicle from the Air Force Western Test Range (AFWTR). Payload-class satellites include a variety of spacecraft equipped with specific instruments for various scientific and technological missions. These include communications satellites like Starlink; space stations such as the ISS; scientific satellites like the Hubble; Earth observation satellites from companies like Planet Labs, Umbra, and HawkEye 360; GPS; miniature CubeSats for education and research; and military/defense satellites.

Loading next visibility...
Identifier
60365, 2024-138L
Orbit
LEO
Country
Flag of USUS
Related business
Manufacturer
SpaceX/Seattle
Mission
Operational Commercial Communications
Bus & Motor
STARLINK V2M, Unknown motor
Mass
730 kg wet, ~700 kg dry
Launch date (UTC)
2024-08-04 (1 year ago)
Launch vehicle
FALCON 9
Launch site
Air Force Western Test Range (AFWTR)
Object type
Payload
Rocket body
Debris
Shape & HBR
Box + 2 Pan, 17.7 m
Radar Cross Section
33.884 m², Large (>1 m²)

Expand to show TLE details & history
Last TLE update: 7 hours ago

TLE from 7 hours ago
0 STARLINK-32188
1 60365U 24138L   25354.17968584 -.00000174  00000-0  62435-5 0  9993
2 60365  53.1626 318.9639 0001295  83.8635 276.2513 15.30190627 78458
Epoch: 2025-12-20T04:18Z
TLE epoch observation values (Epoch: 2025-12-20T04:18:44.856Z)
Latitude
-0.00005°
Longitude
165.26677°
Altitude
476.047 km
Speed
7.629 km/s
True Right ascension
21h 15m 51s
True Declination
0° 00' 00"
Sunlit
Object was in daylight at epoch
Visualization orbit readout
Latitude
Unknown
Longitude
Unknown
Altitude
Unknown
Speed
Unknown
Apparent Right ascension
Unknown
Apparent Declination
Unknown
Sunlit
N/A
Visualization observer readout
Local Sidereal Time
09:59:14
Azimuth
Unknown
Elevation
Unknown
Doppler factor
Unknown
Orbital elements
Apogee altitude
476.387 km
Perigee altitude
474.612 km
Semi-major axis
6,853.636 km
Eccentricity
0.00013
Inclination
53.1626°
RAAN
318.9639°
Arg. of periapsis
83.8635°
True anomaly
276.23655°
Mean anomaly
276.2513°
Eccentric anomaly
276.24392°
Mean motion
3.82527 °/min
Orbital period
94.11 mins
BSTAR
0.0000062435
Loading maneuver chart data...
Computing Atmospheric mass density...
Loading historical data...
Loading historical data...
Loading historical data...
Loading historical data...
Loading historical data...
Loading historical data...
Loading historical data...

Documentation

Showing up to 5 results
|